Location: Mentone
(34.5413°N, 85.5351°W)
Time: 04:48:43
(UTC-05:00)

Tiros 1 despin weight - All Passes

Search period start: 27 May 2015 00:00
Search period end: 06 June 2015 00:00
Orbit: 598 x 647 km, 48.2° (Epoch: 26 May)

Date Brightness Start Highest point End Pass type
(mag) Time Alt. Az. Time Alt. Az. Time Alt. Az.
27 May - 00:14:10 10° NW 00:16:41 14° N 00:19:11 10° NNE visible
27 May - 01:56:31 10° NNW 01:59:42 19° NNE 02:02:57 10° ENE visible
27 May - 03:37:36 10° NW 03:42:06 58° NNE 03:46:39 10° ESE visible
27 May - 05:19:54 10° W 05:23:33 23° SW 05:27:07 10° S daylight
27 May - 19:25:57 10° S 19:28:45 17° SE 19:31:41 10° E daylight
27 May - 21:05:38 10° WSW 21:10:03 70° NW 21:14:30 10° NE visible
27 May - 22:49:01 10° WNW 22:52:20 20° NNW 22:55:37 10° NNE visible
28 May - 00:32:54 10° NNW 00:35:19 14° N 00:37:46 10° NE visible
28 May - 02:14:21 10° NW 02:18:10 26° NNE 02:22:04 10° E visible
28 May - 03:55:37 10° WNW 04:00:10 71° SW 04:04:46 10° SE visible
28 May - 19:42:31 10° SSW 19:46:35 37° SE 19:50:42 10° ENE daylight
28 May - 21:24:07 10° W 21:28:14 37° NNW 21:32:23 10° NE visible
28 May - 23:08:11 10° NW 23:10:53 15° N 23:13:33 10° NNE visible
29 May - 00:51:05 10° NNW 00:53:55 16° NNE 00:56:49 10° NE visible
29 May - 02:32:10 10° NW 02:36:29 43° NNE 02:40:53 10° ESE visible
29 May - 04:13:59 10° WNW 04:18:05 33° SW 04:22:12 10° SSE visible
29 May - 18:22:12 10° SE 18:23:21 11° SE 18:24:44 10° ESE daylight
29 May - 20:00:06 10° SW 20:04:31 83° SE 20:08:59 10° NE daylight
29 May - 21:42:59 10° WNW 21:46:35 23° NNW 21:50:10 10° NNE visible
29 May - 23:27:09 10° NNW 23:29:30 14° N 23:31:52 10° NNE visible
30 May - 01:08:58 10° NNW 01:12:27 22° NNE 01:16:00 10° ENE visible
30 May - 02:50:05 10° NW 02:54:38 82° NE 02:59:14 10° SE visible
30 May - 04:33:14 10° W 04:35:56 15° SW 04:38:28 10° SSW visible
30 May - 18:37:32 10° S 18:41:09 25° SE 18:44:50 10° ENE daylight
30 May - 20:18:19 10° WSW 20:22:37 49° NNW 20:26:57 10° NE visible
30 May - 22:02:08 10° NW 22:05:06 17° NNW 22:08:01 10° NNE visible
30 May - 23:45:34 10° NNW 23:48:07 15° N 23:50:43 10° NE visible
31 May - 01:26:46 10° NW 01:30:50 33° NNE 01:34:59 10° E visible
31 May - 03:08:15 10° WNW 03:12:37 47° SW 03:17:02 10° SSE visible
31 May - 18:54:42 10° SW 18:59:02 56° SE 19:03:23 10° ENE daylight
31 May - 20:37:02 10° W 20:40:54 29° NNW 20:44:46 10° NE visible
31 May - 22:21:15 10° NW 22:23:41 14° N 22:26:06 10° NNE visible
01 Jun - 00:03:34 10° NNW 00:06:41 18° NNE 00:09:53 10° ENE visible
01 Jun - 01:44:36 10° NW 01:49:04 59° NE 01:53:34 10° ESE visible
01 Jun - 03:26:56 10° W 03:30:30 22° SW 03:33:59 10° S night (unlit)
01 Jun - 17:32:52 10° S 17:35:44 17° SE 17:38:43 10° E daylight
01 Jun - 19:12:38 10° WSW 19:17:03 69° NW 19:21:28 10° NE daylight
01 Jun - 20:56:04 10° WNW 20:59:19 19° NNW 21:02:33 10° NNE visible
01 Jun - 22:39:57 10° NNW 22:42:18 14° N 22:44:41 10° NE visible
02 Jun - 00:21:22 10° NW 00:25:09 26° NNE 00:28:59 10° E visible
02 Jun - 02:02:37 10° WNW 02:07:07 70° SW 02:11:40 10° SE visible
02 Jun - 17:49:28 10° SSW 17:53:34 38° SE 17:57:42 10° ENE daylight
02 Jun - 19:31:07 10° W 19:35:14 36° NNW 19:39:21 10° NE daylight
02 Jun - 21:15:13 10° NW 21:17:52 15° N 21:20:29 10° NNE visible
02 Jun - 22:58:07 10° NNW 23:00:54 16° NNE 23:03:45 10° NE visible
03 Jun - 00:39:11 10° NW 00:43:27 43° NNE 00:47:48 10° ESE visible
03 Jun - 02:21:00 10° WNW 02:25:02 32° SW 02:29:04 10° SSE night (unlit)
03 Jun - 16:29:00 10° SSE 16:30:19 11° SE 16:31:52 10° ESE daylight
03 Jun - 18:07:04 10° SW 18:11:31 84° SE 18:15:57 10° NE daylight
03 Jun - 19:50:01 10° WNW 19:53:35 23° NNW 19:57:07 10° NNE daylight
03 Jun - 21:34:11 10° NNW 21:36:29 14° N 21:38:47 10° NNE visible
03 Jun - 23:15:59 10° NNW 23:19:25 21° NNE 23:22:55 10° ENE visible
04 Jun - 00:57:05 10° NW 01:01:35 83° NE 01:06:08 10° SE visible
04 Jun - 02:40:18 10° W 02:42:52 15° SW 02:45:16 10° SSW night (unlit)
04 Jun - 16:44:27 10° S 16:48:07 26° SE 16:51:51 10° ENE daylight
04 Jun - 18:25:18 10° WSW 18:29:36 49° NNW 18:33:55 10° NE daylight
04 Jun - 20:09:09 10° NW 20:12:05 17° NNW 20:14:57 10° NNE daylight
04 Jun - 21:52:35 10° NNW 21:55:05 15° N 21:57:39 10° NE visible
04 Jun - 23:33:46 10° NW 23:37:48 33° NNE 23:41:54 10° E visible
05 Jun - 01:15:15 10° WNW 01:19:34 46° SW 01:23:55 10° SSE visible
05 Jun - 17:01:39 10° SW 17:06:00 57° SE 17:10:21 10° ENE daylight
05 Jun - 18:44:00 10° W 18:47:52 28° NNW 18:51:43 10° NE daylight
05 Jun - 20:28:16 10° NW 20:30:40 14° N 20:33:02 10° NNE visible
05 Jun - 22:10:34 10° NNW 22:13:40 18° NNE 22:16:48 10° ENE visible
